OneWeb SL0007

operational
NORAD ID: 44060 Int'l Des: 2019-010 Owner: ONEWEB Country: UK Constellation: oneweb
LEOCIRCULARPOLARONEWEB_TYPE

OneWeb SL0007について

説明を読み込み中...

リアルタイム位置

3D地球を読み込み中...

次回通過

高度履歴

Altitude vs Time

uPlot chart will show altitude changes over time

軌道要素

1 44060U 19010D 25304.25437809 .00000001 00000-0 -30370-4 0 9996
2 44060 87.8962 304.9154 0001936 100.0020 260.1329 13.15549719321277
Epoch: Oct 31, 2025 • Age: 12 hours

現在のステータス

高度 1205.8 km
速度 7.25 km/s
衛星直下点 -6.81°S, 174.73°E
打ち上げ日 Feb 27, 2019
運用期間 6.6 years
タイプ internet

打ち上げグループ

Unknown Vehicle • OneWeb Launch 1 • 6 satellites

技術仕様

分類 Payload
質量 148.00 kg
乾燥質量 140.00 kg
総質量 148.00 kg
長さ 1.30 m
直径 1.00 m
スパン 5.00 m
形状 Trapezoid+2 pan
製造者 ADST
バスタイプ ARROW
フェーズステータス In Orbit
所有者/国 ONEWEB/UK

大規模コンステレーション

Loading constellations...